Location: Kolin
(50.0330°N, 15.2000°E)
Time: 09:52:14
(UTC+02:00)

ISS - Pass Details

Date: 21 May 2021
Orbit: 417 x 422 km, 51.6° (Epoch: 13 June)

Event Time Altitude Azimuth Distance (km) Brightness Sun altitude
Rises 22:07:58 0° 269° (W) 2,363 0.7 -10.4°
Reaches altitude 10° 22:10:05 10° 273° (W) 1,501 -0.3 -10.6°
Maximum altitude 22:13:26 65° 356° (N) 466 -3.3 -11.0°
Drops below altitude 10° 22:16:47 10° 79° (E) 1,505 -1.2 -11.3°
Enters shadow 22:18:23 - 82° (E) 2,154 -0.4 -11.5°
